Blue Canyon, CA

4:46 AM PDT on April 27, 2017 (GMT -0700)
Blue Canyon-Nyack

Weather History for KBLU - June, 2013

Change the Weather History Date:

Friday, June 7, 2013

  Actual Average Record
Temperature  
Mean Temperature 82 °F -  
Max Temperature 88 °F 65 °F 88 °F (2013)
Min Temperature 75 °F 48 °F 28 °F (1950)
Cooling Degree Days 16    
Growing Degree Days 32 (Base 50)    
Moisture  
Dew Point 31 °F    
Average Humidity 19    
Maximum Humidity 37    
Minimum Humidity 10    
Precipitation  
Precipitation 0.00 in - - ()
Sea Level Pressure  
Sea Level Pressure 29.77 in    
Wind  
Wind Speed 5 mph (NNE)    
Max Wind Speed 8 mph    
Max Gust Speed -    
Visibility 10 miles    
Events      
Averages and records for this station are not official NWS values.
T = Trace of Precipitation, MM = Missing Value Source: NWS Daily Summary

Daily Weather History Graph

Daily Weather History Graph

Search for Another Location

Airport or City:

Trip Planner

Search our weather history database for the weather conditions in past years. The results will help you decide how hot, cold, wet, or windy it might be!

Date:

Astronomy

Jun. 07, 2013 Rise Set
Actual Time 5:36 AM PDT 8:27 PM PDT
Civil Twilight 5:04 AM PDT 8:59 PM PDT
Nautical Twilight 4:24 AM PDT 9:39 PM PDT
Astronomical Twilight 3:37 AM PDT 10:26 PM PDT
Moon 5:02 AM PDT (6/7) 7:46 PM PDT (6/7)
Length of Visible Light 15h 55m
Length of Day
14h 51m
Waning Crescent, 1% of the Moon is Illuminated
Jun 7
Waning Crescent
Jun 8
New
Jun 16
First Quarter
Jun 23
Full
Jun 29
Last Quarter

Hourly Weather History & Observations

Time (PDT) Temp. Dew Point Humidity Pressure Visibility Wind Dir Wind Speed Gust Speed Precip Events Conditions
12:52 AM 75.0 °F 21.9 °F 14% 29.78 in 10.0 mi NE 3.5 mph - N/A   Clear
1:52 AM 75.0 °F 19.9 °F 13% 29.77 in 10.0 mi Variable 5.8 mph - N/A   Clear
2:52 AM 75.0 °F 19.9 °F 13% 29.75 in 10.0 mi NE 6.9 mph - N/A   Clear
3:52 AM 75.0 °F 21.9 °F 14% 29.75 in 10.0 mi NE 6.9 mph - N/A   Clear
4:52 AM 75.0 °F 21.9 °F 14% 29.75 in 10.0 mi NE 5.8 mph - N/A   Clear
5:52 AM 75.0 °F 21.0 °F 13% 29.77 in 10.0 mi NE 6.9 mph - N/A   Clear
6:52 AM 75.0 °F 23.0 °F 14% 29.80 in 10.0 mi NE 6.9 mph - N/A   Clear
7:52 AM 77.0 °F 28.0 °F 17% 29.81 in 10.0 mi NE 4.6 mph - N/A   Clear
8:52 AM 80.1 °F 35.1 °F 20% 29.81 in 10.0 mi Variable 3.5 mph - N/A   Clear
9:52 AM 82.9 °F 30.0 °F 15% 29.79 in 10.0 mi Calm Calm - N/A   Clear
10:52 AM 84.0 °F 27.0 °F 13% 29.80 in 10.0 mi Calm Calm - N/A   Clear
11:52 AM 84.9 °F 25.0 °F 11% 29.80 in 10.0 mi Calm Calm - N/A   Clear
12:52 PM 87.1 °F 24.1 °F 10% 29.78 in 10.0 mi Variable 3.5 mph - N/A   Clear
1:52 PM 86.0 °F 26.1 °F 11% 29.77 in 10.0 mi Variable 4.6 mph - N/A   Clear
2:52 PM 87.1 °F 26.1 °F 11% 29.76 in 10.0 mi Variable 5.8 mph - N/A   Clear
3:52 PM 88.0 °F 32.0 °F 14% 29.74 in 10.0 mi Variable 4.6 mph - N/A   Clear
4:52 PM 87.1 °F 35.1 °F 16% 29.74 in 10.0 mi West 8.1 mph - N/A   Clear
5:52 PM 84.9 °F 36.0 °F 17% 29.74 in 10.0 mi SW 5.8 mph - N/A   Clear
6:52 PM 82.9 °F 45.0 °F 26% 29.75 in 10.0 mi West 4.6 mph - N/A   Clear
7:52 PM 80.1 °F 48.9 °F 34% 29.75 in 8.0 mi NW 6.9 mph - N/A   Clear
8:52 PM 77.0 °F 48.9 °F 37% 29.75 in 10.0 mi North 5.8 mph - N/A   Clear
9:52 PM 75.9 °F 48.0 °F 37% 29.75 in 10.0 mi North 4.6 mph - N/A   Clear
10:52 PM 75.9 °F 46.9 °F 36% 29.75 in 10.0 mi NNE 5.8 mph - N/A   Clear
11:52 PM 77.0 °F 37.9 °F 24% 29.73 in 10.0 mi NE 5.8 mph - N/A   Clear